Regional Weather Roundup
Issued by NWS Wakefield, VA

Home | Current Version | Previous Version | Text Only | Print | Product List | Glossary On
Versions: 1 2 3 4 5 6 7 8 9 10 11 12 13 14 15 16 17 18 19 20 21 22 23 24 25 26 27 28
000
ASUS41 KAKQ 192315
RWRAKQ

REGIONAL WEATHER ROUNDUP
NATIONAL WEATHER SERVICE WAKEFIELD VA
700 PM EDT SAT AUG 19 2017

Note: "fair" indicates few or no clouds below 12,000 feet with no
significant weather and/or obstructions to visibility. * = Denotes
station may not report precipitation (e.g., rain,snow,etc.),
thunder or fog.

VAZ042-051-052>054-056-200000-
NORTHERN VIRGINIA

CITY           SKY/WX    TMP DP  RH WIND       PRES   REMARKS
WASH NATIONAL  MOSUNNY   87  67  51 SW10      29.89R
DULLES         MOSUNNY   84  68  58 S6        29.90R
FORT BELVOIR   SUNNY     85  69  59 S3        29.89R
QUANTICO       SUNNY     86  74  67 S10       29.89S
FREDERICKSBRG* SUNNY     86  72  61 S3        29.89S
STAFFORD*      SUNNY     84  68  58 S3        29.94S
WARRENTON      SUNNY     87  60  39 CALM      29.90S
CULPEPER*      SUNNY     87  65  47 SW3       29.91R
MANASSAS*      NOT AVBL
LEESBURG*      SUNNY     88  70  55 SW3       29.91R
WINCHESTER     SUNNY     82  61  47 W6        29.92R
FRONT ROYAL*   CLEAR     84  68  58 CALM      29.91R
LURAY*         CLEAR     84  63  48 SW3       29.93R
$$

VAZ048-049-060>072-079>083-200000-
CENTRAL AND SOUTH CENTRAL VIRGINIA

CITY           SKY/WX    TMP DP  RH WIND       PRES   REMARKS
RICHMOND       MOSUNNY   85  70  60 S5        29.91S
CHESTERFIELD*  FAIR      85  72  65 S3        29.92S
PETERSBURG*    SUNNY     84  69  59 CALM      29.93R
HANOVER        MOSUNNY   85  68  56 VRB3      29.92S
TAPPAHANNOCK*  CLEAR     86  62  45 CALM      29.91S
QUINTON*       FAIR      85  72  63 CALM      29.91R
CHARLOTTSVILLE MOSUNNY   88  63  43 SW3       29.92R
GORDONSVILLE*  CLEAR     83  73  73 CALM      29.91R
ORANGE*        SUNNY     86  64  48 CALM      29.91R
LOUISA*        SUNNY     84  66  54 CALM      29.91S
BUMPASS*       FAIR      85  70  61 CALM      29.91S
FARMVILLE*     SUNNY     86  59  40 CALM      29.91S
CREWE*         FAIR      85  65  51 CALM      29.93R
FORT PICKETT*  FAIR     N/A N/A N/A SE3       29.94R
CHASE CITY*    FAIR      86  67  52 CALM      29.94S
CLARKSVILLE*   FAIR      84  72  65 CALM      29.94R
SOUTH HILL*    SUNNY     85  71  63 CALM      29.99S
LAWRENCEVILLE* FAIR      83  73  72 CALM      29.93S
EMPORIA*       MOSUNNY   84  72  65 W3        29.93S
$$

VAZ088>098-200000-
SOUTHEAST VIRGINIA

CITY           SKY/WX    TMP DP  RH WIND       PRES   REMARKS
NORFOLK        MOCLDY    84  68  58 CALM      29.91S
VIRGINIA BEACH CLOUDY    81  71  71 SE5       29.91S
NORFOLK NAVAL  MOCLDY    84  67  56 SE3       29.93S
WEST POINT*    CLOUDY    86  67  53 CALM      29.91F
SALUDA*        FAIR      83  71  68 SE3       29.90F
NEWPORT NEWS   CLOUDY    84  69  60 E5        29.91S
LANGLEY AFB    CLOUDY    84  66  54 E3        29.91R
FORT EUSTIS    CLOUDY    90  73  55 S5        29.89S HX  98
WILLIAMSBURG*  PTCLDY    86  73  66 CALM      29.92S
HR EXEC AP*    FAIR      82  72  69 S8        29.89R
FRANKLIN*      PTCLDY    85  74  69 E7        29.92S
US460-WAKEFLD  PTCLDY    86  77  74 CALM      29.91S HX  97
$$

VAZ020-022-025-037-045-200000-
WEST CENTRAL AND SOUTHWEST VIRGINIA

CITY           SKY/WX    TMP DP  RH WIND       PRES   REMARKS
STAUNTON*      SUNNY     83  63  50 SW6       29.97R
WAYNESBORO*    CLEAR     82  62  49 SW3       29.97R
HOT SPRINGS VA SUNNY     73  54  49 CALM      30.12S
LYNCHBURG      SUNNY     85  61  44 SW5       29.96R
DANVILLE       SUNNY     84  67  56 SW5       29.95R
SOUTH BOSTON*  FAIR      86  68  54 CALM      29.94S
MARTINSVILLE   SUNNY     84  68  58 CALM      29.99S
ROANOKE        MOSUNNY   89  56  32 NW7       29.98R
BLACKSBURG     SUNNY     82  63  52 CALM      30.06S
DUBLIN*        SUNNY     83  65  54 SW7       30.04S
MARION*        SUNNY     79  56  44 W5        30.09S
HILLSVILLE*    SUNNY     80  56  44 CALM      30.06S
RICHLANDS*     FAIR      77  61  57 W5        30.08R
WISE*          SUNNY     79  61  53 CALM      30.09R
ABINGDON*      SUNNY     82  65  56 W3        30.05R
$$

MDZ021>025-VAZ099-100-200000-
SOUTHERN MARYLAND AND THE DELMARVA PENINSULA

CITY           SKY/WX    TMP DP  RH WIND       PRES   REMARKS
PATUXENT RIVER CLEAR     82  71  69 SW3       29.89S
BAY BRIDGE APT CLEAR     86  70  58 S6        29.88S
LEONARDTOWN    CLEAR     82  68  61 CALM      29.92R
DOVER          CLEAR     84  66  54 SW6       29.89R
GEORGETOWN     CLEAR     85  69  58 W5        29.89S
EASTON         NOT AVBL
CAMBRIDGE      CLEAR     82  72  69 VRB3      29.89S
SALISBURY      CLEAR     83  70  64 SW3       29.89S
OCEAN CITY     CLEAR     80  73  79 VRB3      29.90R
WALLOPS ISLAND CLEAR     84  72  67 MISG      29.90S
ACCOMACK*      CLOUDY    83  72  69 W3        29.91R
$$

NCZ012>017-030>032-200000-
NORTH CENTRAL AND EASTERN NORTH CAROLINA

CITY           SKY/WX    TMP DP  RH WIND       PRES   REMARKS
ROANOKE RAPIDS FAIR      86  70  58 W3        29.92S
RALEIGH        MOSUNNY   90  67  46 N5        29.94S
ELIZABETH CITY CLOUDY    81  78  91 N3        29.91F
AHOSKIE*         N/A     83  78  82 CALM      29.92S
EDENTON*       CLOUDY    84  76  78 S17       29.92S
CURRITUCK*     CLOUDY    79  71  76 N5        29.92F
KILL DEVIL HLS RAIN      80  75  87 CALM      29.91F
MANTEO         LGT RAIN  78  76  91 SW14      29.92F
CAPE HATTERAS  LGT RAIN  76  74  93 SW12      29.94F
TARBORO*       NOT AVBL
GOLDSBORO      MOSUNNY   84  79  84 S3        29.92S HX  96
WASHINGTON     NOT AVBL
GREENVILLE     CLOUDY    82  73  74 S7        29.94F
NEW BERN       LGT RAIN  75  75 100 S7        29.94F
WILMINGTON     CLOUDY    77  74  90 CALM      29.94F
$$

VAZ048-200000-
ELSEWHERE

CITY           SKY/WX    TMP DP  RH WIND       PRES   REMARKS
HARRISBURG PA  PTCLDY    83  67  58 SW6       29.86R
BALTIMORE      PTCLDY    84  69  60 W5        29.88R
ANNAPOLIS      CLEAR     85  74  69 S6        29.88R
ANDREWS AFB    CLEAR     83  67  58 SW7       29.89R
PHILADELPHIA   PTCLDY    86  63  45 W9        29.87R
HENDERSON NC   SUNNY     84  64  51 CALM      29.94F
GREENSBORO     PTSUNNY   87  65  47 NW6       29.96S
ROCKY MOUNT    CLOUDY    87  75  67 CALM      29.92F HX  96
$$

VAZ100-200000-
MARINE

STATION/POSITION TIME  TEMP    WIND        PRES    WAVE   SWELL
                       AIR SEA DIR/SP/G            HT/PER HT/PER
                 (UTC) (F)     (DEG/KT/KT) (MB)    (FT/S) (FT/S)
BRANDYWINE LGT   2242   82     220/  5/  5 1012.1R
CAPE MAY NJ      2236   83 81  250/  4/  4 1011.3R
LEWES DE         2242   85 79  280/  8/  9 1011.6F
15NM E FENWICK I 2250   80 80  180/  8/  8 1012.4F   2/ 6   2/ 6
OCEAN-CITY-INLET 2242   81 77  200/  5/  7 1012.8R
WACHAPREAGUE VA  2242   85 85  270/  3/  3 1012.7F
THOMAS POINT MD  2200   82 83  180/ 11/ 12   N/A
GOOSES REEF MD   2300   83 81  180/ 10/ 12 1012.8    1/ 2
COVE POINT MD    2242   82     190/  8/ 10 1012.9F
SOLOMONS ISLAND  2242   85 82  230/  5/  7   N/A
BISHOPS HEAD MD  2242   84 87  200/  6/  8 1012.6S
PINEY POINT MD   2242          190/  2/  3   N/A
POTOMAC MD       2300   84 85  170/  6/  8 1011.7    0
CAMBRIDGE MD     2242   87 85              1013.1S
LEWISETTA VA     2242   84 85  140/  2/  3 1012.3F
RAPPAHANNOCK LGT 2242          320/  2/  2 1013.6R
STINGRAY PT      2300   84 83  150/  4/  6 1013.1    1
YORK RVR RNG VA  2242   84     110/  3/  4 1013.5R
YORKTOWN VA      2242   84 83   90/  4/  5 1012.7R
JAMESTOWN VA     2300      86  270/  2/  2   N/A
DOMINION TERM VA 2242   85     110/  2/  9 1013.0R
KIPTOPEKE VA     2242      83                N/A
CHES BAY BRIDGE  2242   82 80  170/  6/  9 1012.8S
CAPE HENRY VA    2242   82     110/  3/  4   N/A
WILLOUBY STN VA  2242   83      40/  2/  2 1013.0S
S CRANEY ISL VA  2242   84     120/  7/  8 1012.7S
CAPE HENRY BUOY  2300      81                N/A     2/ 7
1ST LANDING BUOY 2300   81 80              1012.5    1/ 4
64NM E OF VA BCH 2250   79 80  310/  2/  4 1013.6F   4/ 6   3/ 6
DUCK PIER NC     2242   78 79   20/  9/ 14 1012.6F
44100 DUCK FRF   2205      82                N/A     2/ 9
44056 DUCK FRF   2300      81                N/A     2/ 8
OREGON INLET NC  2242   79 86  230/ 12/ 18 1012.9F
HATTERAS NC      2242   77 84  180/  4/ 13 1014.2R
DIAMOND SHLS NC  2250   77 84  210/  8/ 10 1014.0R   4/ 4   3/ 4
CAPE LOOKOUT NC  2200   81     310/  4/  5 1014.1F
$$




USA.gov is the U.S. government's official web portal to all federal, state and local government web resources and services.